User: anonymous   Login
Location: Kalberh�ni
(46.4610°N, 7.2453°E)
Time: 17:31:06
(UTC+00:00)
Language:

Cosmos 1802 Rocket - Orbit

View from above orbital plane
View from above orbital plane
View from above satellite
View from above satellite

Ground track
Ground track

The orbit data is extracted from the following two-line orbital elements,

1 17160U 86093B   21264.97471745  .00000039  00000-0  24102-4 0  9995
2 17160  82.9318 348.6329 0040065 126.3194  46.9563 13.74652673746615
Epoch (UTC): 21 September 2021 23:23:35
Eccentricity: 0.0040065
inclination: 82.9318°
perigee height: 953 km
apogee height: 1012 km
right ascension of ascending node: 348.6329°
argument of perigee: 126.3194°
revolutions per day: 13.74652673
mean anomaly at epoch: 46.9563°
orbit number at epoch: 74661

The dashed part of the orbit path shows where the satellite is in the earth's shadow,  

DLR